Location: Bishausen
(51.6334°N, 9.9631°E)
Time: 10:57:30
(UTC+00:00)

CZ-2C R/B - Pass Details

Date: 23 May 2024
Orbit: 784 x 868 km, 98.3° (Epoch: 23 June)

Event Time Altitude Azimuth Distance (km) Brightness Sun altitude
Exits shadow 02:29:16 - 209° (SSW) 2,621 4.6 -6.4°
Reaches altitude 10° 02:30:09 10° 215° (SW) 2,340 4.4 -6.3°
Maximum altitude 02:34:18 24° 269° (W) 1,575 3.7 -5.8°
Drops below altitude 10° 02:38:30 10° 323° (NW) 2,361 5.1 -5.4°
Sets 02:41:17 0° 337° (NNW) 3,303 6.1 -5.1°
